Dryden, TX

2:58 PM CDT on March 27, 2017 (GMT -0500)
Dryden

Weather History for K6R6 - October, 2012

Change the Weather History Date:

Saturday, October 6, 2012

  Actual Average (KFST) Record (KFST)
Temperature  
Mean Temperature 66 °F -  
Max Temperature 73 °F 80 °F 93 °F (2007)
Min Temperature 59 °F 56 °F 46 °F (2005)
Cooling Degree Days 2    
Growing Degree Days 16 (Base 50)    
Moisture  
Dew Point 52 °F    
Average Humidity 59    
Maximum Humidity 73    
Minimum Humidity 45    
Precipitation  
Precipitation 0.00 in - - ()
Sea Level Pressure  
Sea Level Pressure 29.95 in    
Wind  
Wind Speed 11 mph (NNE)    
Max Wind Speed 17 mph    
Max Gust Speed 22 mph    
Averages and records for this station are not official NWS values.
T = Trace of Precipitation, MM = Missing Value Source: NWS Daily Summary

Daily Weather History Graph

Daily Weather History Graph

Search for Another Location

Airport or City:

Trip Planner

Search our weather history database for the weather conditions in past years. The results will help you decide how hot, cold, wet, or windy it might be!

Date:

Astronomy

Oct. 06, 2012 Rise Set
Actual Time 7:45 AM CDT 7:27 PM CDT
Civil Twilight 7:21 AM CDT 7:51 PM CDT
Nautical Twilight 6:53 AM CDT 8:19 PM CDT
Astronomical Twilight 6:26 AM CDT 8:46 PM CDT
Moon No Moon Rise 1:22 PM CDT (10/6)
Length of Visible Light 12h 30m
Length of Day
11h 42m
Waning Gibbous, 65% of the Moon is Illuminated
Oct 6
Waning Gibbous
Oct 8
Last Quarter
Oct 15
New
Oct 21
First Quarter
Oct 29
Full

Hourly Weather History & Observations

Time (CDT) Temp. Dew Point Humidity Pressure Visibility Wind Dir Wind Speed Gust Speed Precip Events Conditions
12:53 AM 73.0 °F 52.0 °F 48% 29.85 in - NNE 6.9 mph - N/A   Unknown
1:53 AM 71.1 °F 50.0 °F 47% 29.84 in - NNE 6.9 mph - N/A   Unknown
2:53 AM 71.1 °F 48.9 °F 45% 29.84 in - NNE 8.1 mph - N/A   Unknown
3:53 AM 69.1 °F 48.9 °F 49% 29.83 in - North 8.1 mph - N/A   Unknown
4:53 AM 66.0 °F 51.1 °F 59% 29.83 in - North 8.1 mph - N/A   Unknown
5:53 AM 66.9 °F 51.1 °F 57% 29.86 in - NNE 9.2 mph - N/A   Unknown
6:53 AM 66.0 °F 52.0 °F 60% 29.89 in - NNE 10.4 mph - N/A   Unknown
7:53 AM 64.9 °F 54.0 °F 68% 29.92 in - NNE 10.4 mph - N/A   Unknown
8:53 AM 66.0 °F 57.0 °F 73% 29.96 in - North 16.1 mph - N/A   Unknown
9:53 AM 68.0 °F 57.0 °F 68% 30.00 in - North 16.1 mph - N/A   Unknown
10:53 AM 68.0 °F 57.0 °F 68% 30.01 in - North 17.3 mph 21.9 mph N/A   Unknown
11:53 AM 68.0 °F 55.9 °F 65% 30.02 in - North 16.1 mph 21.9 mph N/A   Unknown
12:53 PM 68.0 °F 55.9 °F 65% 30.02 in - North 13.8 mph 21.9 mph N/A   Unknown
1:53 PM 69.1 °F 55.0 °F 61% 29.99 in - North 15.0 mph 19.6 mph N/A   Unknown
2:53 PM 70.0 °F 54.0 °F 57% 29.96 in - North 13.8 mph 19.6 mph N/A   Unknown
3:53 PM 71.1 °F 53.1 °F 53% 29.94 in - North 10.4 mph - N/A   Unknown
4:53 PM 71.1 °F 53.1 °F 53% 29.94 in - NNE 11.5 mph - N/A   Unknown
5:53 PM 72.0 °F 53.1 °F 51% 29.93 in - NNE 11.5 mph - N/A   Unknown
6:53 PM 69.1 °F 52.0 °F 54% 29.94 in - NNE 11.5 mph - N/A   Unknown
7:53 PM 66.0 °F 50.0 °F 56% 29.97 in - NE 12.7 mph - N/A   Unknown
8:53 PM 62.1 °F 48.9 °F 62% 30.00 in - ENE 13.8 mph - N/A   Unknown
9:53 PM 61.0 °F 48.9 °F 64% 30.03 in - NE 15.0 mph - N/A   Unknown
10:53 PM 60.1 °F 48.0 °F 64% 30.05 in - NE 16.1 mph - N/A   Unknown
11:53 PM 59.0 °F 46.9 °F 64% 30.07 in - NE 13.8 mph - N/A   Unknown